CSS (TIANHE)

Last updated on Sun Aug 09 2026 00:02:06 GMT+0000 (Coordinated Universal Time)

1 48274U 21035A 26220.63002771 .00010743 00000+0 13867-3 0 9996 2 48274 41.4696 3.6459 0001073 264.2737 95.7979 15.58898129301350
UTC large
Height (km)
Speed (km/s)
/
Latitude / Longitude
Inclination (degrees)
Orbital Period (minutes)
Azimuth
Elevation
Range (km)
Doppler Factor

Next 0 passes for location: London (51.5072 / 0.1276)

No passes found over London.
CSS (TIANHE)